Weather History for Beaufort, NC

Change the Weather History Date:

Saturday, November 23, 2013

  Actual Average Record
Temperature  
Mean Temperature 60 °F -  
Max Temperature 66 °F 63 °F 77 °F (1979)
Min Temperature 51 °F 42 °F 25 °F (1976)
Degree Days  
Heating Degree Days 6    
Growing Degree Days 10 (Base 50)    
Moisture  
Dew Point 55 °F    
Average Humidity 89    
Maximum Humidity 100    
Minimum Humidity 61    
Precipitation  
Precipitation 0.05 in - - ()
Sea Level Pressure  
Sea Level Pressure 30.05 in    
Wind  
Wind Speed 9 mph (North)    
Max Wind Speed 16 mph    
Max Gust Speed 25 mph    
Visibility 8 miles    
Events Rain    
Averages and records for this station are not official NWS values.
T = Trace of Precipitation, MM = Missing Value Source: NWS Daily Summary

Daily Weather History Graph

Daily Weather History Graph

Search for Another Location

Airport:

Trip Planner

Search our weather history database for the weather conditions in past years. The results will help you decide how hot, cold, wet, or windy it might be!

Date:

Astronomy

Nov. 23, 2013 Rise Set
Actual Time 6:48 AM EST 4:57 PM EST
Civil Twilight 6:21 AM EST 5:24 PM EST
Nautical Twilight 5:50 AM EST 5:55 PM EST
Astronomical Twilight 5:20 AM EST 6:25 PM EST
Moon 10:18 PM EST (11/23) 11:08 AM EST (11/23)
Length of Visible Light 11h 03m
Length of Day
10h 09m
Waning Gibbous, 70% of the Moon is Illuminated
Nov 23
Waning Gibbous
Nov 25
Last Quarter
Dec 2
New
Dec 9
First Quarter
Dec 17
Full

Hourly Weather History & Observations

Time (EST) Temp. Dew Point Humidity Pressure Visibility Wind Dir Wind Speed Gust Speed Precip Events Conditions
12:58 AM 64.9 °F 62.1 °F 90% 30.09 in 10.0 mi WSW 9.2 mph - N/A   Overcast
1:58 AM 64.0 °F 61.0 °F 90% 30.08 in 10.0 mi West 6.9 mph - N/A   Partly Cloudy
2:58 AM 64.0 °F 61.0 °F 90% 30.07 in 10.0 mi WSW 9.2 mph - N/A   Mostly Cloudy
3:58 AM 63.0 °F 61.0 °F 93% 30.06 in 10.0 mi WSW 9.2 mph - N/A   Scattered Clouds
4:58 AM 63.0 °F 61.0 °F 93% 30.05 in 10.0 mi West 9.2 mph - N/A   Mostly Cloudy
5:58 AM 64.0 °F 62.1 °F 93% 30.05 in 10.0 mi West 6.9 mph - N/A   Overcast
6:58 AM 64.0 °F 62.1 °F 93% 30.05 in 5.0 mi West 5.8 mph - 0.01 in Rain Light Rain
7:20 AM 63.0 °F 62.1 °F 97% 30.05 in 4.0 mi West 8.1 mph - 0.01 in Rain Light Rain
7:53 AM 64.4 °F 62.6 °F 94% 30.06 in 6.0 mi WNW 6.9 mph - 0.01 in   Overcast
7:58 AM 63.0 °F 63.0 °F 100% 30.06 in 6.0 mi WNW 5.8 mph - 0.01 in   Overcast
8:58 AM 64.9 °F 63.0 °F 93% 30.06 in 8.0 mi NW 9.2 mph - N/A   Overcast
9:34 AM 66.0 °F 62.1 °F 87% 30.05 in 9.0 mi NNW 10.4 mph - N/A   Mostly Cloudy
9:58 AM 64.9 °F 61.0 °F 87% 30.06 in 10.0 mi NNW 13.8 mph - N/A   Overcast
10:58 AM 66.0 °F 59.0 °F 78% 30.05 in 10.0 mi North 10.4 mph - N/A   Overcast
11:25 AM 57.9 °F 52.0 °F 81% 30.05 in 10.0 mi NNE 11.5 mph 21.9 mph N/A   Overcast
11:56 AM 55.4 °F 53.6 °F 94% 30.05 in 2.0 mi NE 10.4 mph - 0.01 in Rain Light Rain
11:58 AM 55.9 °F 54.0 °F 93% 30.05 in 2.0 mi NE 10.4 mph - 0.01 in Rain Light Rain
12:09 PM 55.9 °F 54.0 °F 93% 30.05 in 2.0 mi NNE 9.2 mph - 0.00 in Rain Light Rain
12:35 PM 55.0 °F 54.0 °F 96% 30.05 in 3.0 mi NE 11.5 mph - 0.01 in Rain Light Rain
12:58 PM 55.0 °F 53.1 °F 93% 30.05 in 3.0 mi NNE 10.4 mph - 0.01 in Rain Light Rain
1:20 PM 54.0 °F 52.0 °F 93% 30.04 in 2.5 mi NNE 12.7 mph - 0.01 in Rain Light Rain
1:27 PM 54.0 °F 52.0 °F 93% 30.04 in 3.0 mi NE 11.5 mph - 0.01 in Rain Light Rain
1:38 PM 54.0 °F 52.0 °F 93% 30.03 in 3.0 mi NE 10.4 mph - 0.01 in Rain Light Rain
1:47 PM 54.0 °F 52.0 °F 93% 30.03 in 7.0 mi NNE 10.4 mph - 0.01 in   Overcast
1:58 PM 55.0 °F 52.0 °F 89% 30.03 in 7.0 mi NNE 10.4 mph 18.4 mph 0.01 in   Overcast
2:14 PM 54.0 °F 52.0 °F 93% 30.03 in 6.0 mi NE 9.2 mph - N/A   Overcast
2:47 PM 54.0 °F 52.0 °F 93% 30.02 in 8.0 mi NE 9.2 mph - N/A   Overcast
2:58 PM 54.0 °F 52.0 °F 93% 30.02 in 8.0 mi NE 6.9 mph - N/A   Overcast
3:36 PM 54.0 °F 51.1 °F 90% 30.02 in 9.0 mi NE 4.6 mph - N/A   Overcast
3:58 PM 54.0 °F 50.0 °F 86% 30.03 in 10.0 mi NNE 5.8 mph - N/A   Overcast
4:58 PM 53.1 °F 48.9 °F 86% 30.04 in 10.0 mi North 8.1 mph - N/A   Overcast
5:58 PM 53.1 °F 48.0 °F 83% 30.05 in 10.0 mi North 4.6 mph - N/A   Overcast
6:58 PM 53.1 °F 48.0 °F 83% 30.04 in 10.0 mi North 4.6 mph - N/A   Overcast
7:58 PM 53.1 °F 48.0 °F 83% 30.06 in 10.0 mi North 4.6 mph - N/A   Overcast
8:58 PM 53.1 °F 48.9 °F 86% 30.05 in 10.0 mi Calm Calm - 0.00 in   Overcast
9:58 PM 53.1 °F 48.0 °F 83% 30.06 in 10.0 mi North 3.5 mph - N/A   Overcast
10:58 PM 53.1 °F 48.0 °F 83% 30.06 in 10.0 mi NW 8.1 mph - N/A   Mostly Cloudy
11:58 PM 51.1 °F 37.9 °F 61% 30.08 in 10.0 mi NNW 16.1 mph 25.3 mph N/A   Clear